DECAYED

OBJECT E, 53303 (Decayed)

Orbit data source: Space-Track

You're viewing an Uncataloged Satellite

Recently launched and/or uncataloged satellites may have evolving metadata. Metadata may include but not limited to: Owner, Maufacturer, Bus, Motor, and Mission.

OBJECT E, 53303 was a Chinese satellite in LEO that was launched on Wed, 27 Jul 2022 UTC via a LIJIAN-1 launch vehicle from the Jiuquan Satellite Launch Center, China (JSC). Unknown objects in Earth's orbit typically refer to objects detected orbiting the Earth but have not yet been identified or cataloged. These objects could be anything from previously untracked satellites, spent rocket stages, debris from satellite collisions, or even natural meteoroids temporarily captured by Earth's gravity. This object's orbit decayed before it could be identified.

Not visible in the next 10 days
Identifier
53303, 2022-087E
Orbit
Decayed
Country
Flag of CNCN / PRC
Related business
None
Manufacturer
Unknown
Mission
Decayed Civil Technology
Bus & Motor
Unknown
Mass
Unknown
Launch date (UTC)
2022-07-27 (4 years ago)
Launch vehicle
LIJIAN-1
Launch site
Jiuquan Satellite Launch Center, China (JSC)
Object type
Unknown
Shape & HBR
Box, 0.1 m
Radar Cross Section
0.080 m², Medium (>0.1 m² and < 1m²)

Expand to show TLE details & history
Last TLE update: 8 months ago

TLE from 8 months ago
0 OBJECT E
1 53303U 22087E   25288.17432000  .02622089  24307-5  44657-3 0  9994
2 53303  97.2752  36.9871 0007209 264.0643  95.9832 16.33095860181866
Epoch: 2025-10-15T04:11Z
TLE epoch observation values (Epoch: 2025-10-15T04:11:01.248Z)
Latitude
0.00005°
Longitude
-49.72029°
Altitude
187.976 km
Speed
7.793 km/s
True Right ascension
02h 27m 56s
True Declination
0° 00' 00"
Sunlit
Object was in full shadow at epoch
Visualization orbit readout
Latitude
Unknown
Longitude
Unknown
Altitude
Unknown
Speed
Unknown
Apparent Right ascension
Unknown
Apparent Declination
Unknown
Sunlit
N/A
Visualization observer readout
Local Sidereal Time
21:33:45
Azimuth
Unknown
Elevation
Unknown
Doppler factor
Unknown
Orbital elements
Apogee altitude
185.773 km
Perigee altitude
176.316 km
Semi-major axis
6,559.181 km
Eccentricity
0.00072
Inclination
97.2752°
RAAN
36.9871°
Arg. of periapsis
264.0643°
True anomaly
96.06535°
Mean anomaly
95.9832°
Eccentric anomaly
96.02428°
Mean motion
4.08572 °/min
Orbital period
88.11 mins
BSTAR
0.00044657
Loading maneuver chart data...
Computing Atmospheric mass density...
Loading historical data...
Loading historical data...
Loading historical data...
Loading historical data...
Loading historical data...
Loading historical data...
Loading historical data...

Documentation

Showing up to 5 results
|